Back to catalog

USA 415

AliveMilitaryVLEO
NORAD 61036·PAYLOAD·🇺🇸 United States

Launched Sep 6, 2024 from Vandenberg Space Force Base

Loading…

Next Passes (next 24 hours)

TLE

StaleSource: Mike McCants

Epoch: Sep 4, 2026, 21:04 UTC

1 61036U 24160R   26247.87805011 0.00000000  00000-0  00000-0 0    03
2 61036  70.0230 156.7593 0002000 190.6852 169.3148 14.96713108    01

Track USA 415 in real time with AllMySat

Download on the App Store